Location: ?
(35.4064°N, 139.3593°E)
Time: 12:37:50
(UTC+00:00)

ARIANE 6 FM1 Upper Stage - Pass Details

Date: 13 December 2025
Orbit: 522 x 610 km, 62.0° (Epoch: 13 January)

Event Time Altitude Azimuth Distance (km) Brightness Sun altitude
Rises 20:52:42 0° 211° (SSW) 2,710 6.1 -10.2°
Reaches altitude 10° 20:54:56 10° 210° (SSW) 1,806 5.2 -9.8°
Maximum altitude 20:58:59 86° 121° (ESE) 541 2.6 -9.0°
Drops below altitude 10° 21:02:58 10° 34° (NE) 1,776 5.4 -8.3°
Sets 21:05:09 0° 34° (NE) 2,661 6.3 -7.9°
